User: anonymous   Login
Location: Unspecified
(0.0000°N, 0.0000°E)
Time: 17:22:43
(UTC+00:00)
Language:

POPSAT HIP 1 - Orbit

View from above orbital plane
View from above orbital plane
View from above satellite
View from above satellite

Ground track
Ground track

The orbit data is extracted from the following two-line orbital elements,

1 40028U 14033U   21337.10869641  .00000685  00000-0  77945-4 0  9991
2 40028  97.9519 269.3960 0013556 350.1328   9.9647 14.89458968404996
Epoch (UTC): 03 December 2021 02:36:31
Eccentricity: 0.0013556
inclination: 97.9519°
perigee height: 590 km
apogee height: 609 km
right ascension of ascending node: 269.3960°
argument of perigee: 350.1328°
revolutions per day: 14.89458968
mean anomaly at epoch: 9.9647°
orbit number at epoch: 40499

The dashed part of the orbit path shows where the satellite is in the earth's shadow,  

DLR